Massena, NY

3:21 AM EST on February 08, 2016 (GMT -0500)
Massena International-Richards

Weather History for KMSS - June, 2012

Change the Weather History Date:

Sunday, June 24, 2012

  Actual Average Record
Temperature  
Mean Temperature 67 °F 67 °F  
Max Temperature 81 °F 78 °F 91 °F (1957)
Min Temperature 53 °F 56 °F 39 °F (1988)
Degree Days  
Heating Degree Days 0 2  
Month to date heating degree days 87  
Since 1 June heating degree days 87  
Since 1 July heating degree days 8188  
Cooling Degree Days 2 3  
Month to date cooling degree days 89 50  
Year to date cooling degree days 127 64  
Since 1 June cooling degree days 89 50  
Growing Degree Days 16 (Base 50)    
Moisture  
Dew Point 58 °F    
Average Humidity 68    
Maximum Humidity 100    
Minimum Humidity 36    
Precipitation  
Precipitation 0.40 in 0.11 in 1.33 in (1984)
Month to date precipitation 3.23 2.80  
Year to date precipitation 13.44 14.73  
Sea Level Pressure  
Sea Level Pressure 29.94 in    
Wind  
Wind Speed 5 mph (SW)    
Max Wind Speed 22 mph    
Max Gust Speed 29 mph    
Visibility 8 miles    
Events Rain    
T = Trace of Precipitation, MM = Missing Value Source: NWS Daily Summary

Daily Weather History Graph

Daily Weather History Graph

Search for Another Location

Airport or City:

Trip Planner

Search our weather history database for the weather conditions in past years. The results will help you decide how hot, cold, wet, or windy it might be!

Date:

Astronomy

Jun. 24, 2012 Rise Set
Actual Time 5:13 AM EDT 8:49 PM EDT
Civil Twilight 4:36 AM EDT 9:27 PM EDT
Nautical Twilight 3:46 AM EDT 10:16 PM EDT
Astronomical Twilight 2:41 AM EDT 11:22 PM EDT
Moon 10:30 AM EDT (6/24) 11:31 PM EDT (6/24)
Length of Visible Light 16h 50m
Length of Day
15h 36m
Waxing Crescent, 24% of the Moon is Illuminated
Jun 24
Waxing Crescent
Jun 26
First Quarter
Jul 3
Full
Jul 10
Last Quarter
Jul 19
New

Hourly Weather History & Observations

Time (EDT) Temp. Dew Point Humidity Pressure Visibility Wind Dir Wind Speed Gust Speed Precip Events Conditions
12:53 AM 57.0 °F 54.0 °F 89% 29.99 in 10.0 mi Calm Calm - N/A   Clear
1:53 AM 54.0 °F 52.0 °F 93% 29.99 in 10.0 mi SSW 5.8 mph - N/A   Clear
2:53 AM 55.9 °F 52.0 °F 87% 29.99 in 10.0 mi SSW 4.6 mph - N/A   Clear
3:53 AM 55.9 °F 53.1 °F 90% 29.99 in 10.0 mi Calm Calm - N/A   Clear
4:53 AM 53.1 °F 53.1 °F 100% 30.00 in 10.0 mi SSW 3.5 mph - N/A   Clear
5:53 AM 55.0 °F 54.0 °F 96% 29.99 in 10.0 mi Calm Calm - N/A   Clear
6:53 AM 60.1 °F 57.9 °F 93% 29.99 in 10.0 mi SSW 3.5 mph - N/A   Clear
7:53 AM 64.9 °F 60.1 °F 84% 30.00 in 10.0 mi SSW 4.6 mph - N/A   Clear
8:53 AM 70.0 °F 59.0 °F 68% 30.00 in 10.0 mi SSW 3.5 mph - N/A   Clear
9:53 AM 73.9 °F 57.9 °F 57% 29.99 in 10.0 mi SSW 4.6 mph - N/A   Clear
10:53 AM 77.0 °F 55.0 °F 47% 29.97 in 10.0 mi Variable 4.6 mph - N/A   Clear
11:53 AM 79.0 °F 52.0 °F 39% 29.95 in 10.0 mi SW 5.8 mph - N/A   Clear
12:53 PM 80.1 °F 52.0 °F 38% 29.93 in 10.0 mi SSE 5.8 mph - N/A   Partly Cloudy
1:53 PM 78.1 °F 53.1 °F 42% 29.90 in 10.0 mi WSW 3.5 mph - N/A   Mostly Cloudy
2:53 PM 70.0 °F 57.9 °F 65% 29.91 in 6.0 mi WSW 18.4 mph 28.8 mph 0.02 in Rain Rain
2:59 PM 66.2 °F 60.8 °F 83% 29.91 in 1.8 mi WSW 16.1 mph 28.8 mph 0.05 in Rain Heavy Rain
3:09 PM 66.2 °F 60.8 °F 83% 29.92 in 3.0 mi West 16.1 mph 23.0 mph 0.09 in Rain Rain
3:53 PM 66.0 °F 62.1 °F 87% 29.91 in 10.0 mi West 5.8 mph - 0.12 in Rain Light Rain
4:53 PM 64.0 °F 59.0 °F 84% 29.92 in 1.8 mi West 10.4 mph - 0.06 in Rain Rain
5:00 PM 62.6 °F 59.0 °F 88% 29.92 in 2.5 mi West 5.8 mph - 0.02 in Rain Rain
5:11 PM 64.4 °F 60.8 °F 88% 29.92 in 4.0 mi WSW 4.6 mph - 0.03 in Rain Light Rain
5:18 PM 62.6 °F 59.0 °F 88% 29.92 in 1.8 mi WSW 3.5 mph - 0.06 in Rain Rain
5:27 PM 62.6 °F 59.0 °F 88% 29.91 in 3.0 mi SW 3.5 mph - 0.07 in Rain Light Rain
5:53 PM 64.0 °F 61.0 °F 90% 29.92 in 9.0 mi SW 5.8 mph - 0.08 in Rain Light Rain
6:53 PM 63.0 °F 61.0 °F 93% 29.93 in 5.0 mi SW 5.8 mph - 0.02 in Rain Light Rain
7:53 PM 62.1 °F 61.0 °F 96% 29.91 in 9.0 mi SSW 5.8 mph - 0.03 in Rain Light Rain
8:53 PM 61.0 °F 60.1 °F 97% 29.88 in 10.0 mi South 4.6 mph - 0.03 in Rain Light Rain
9:53 PM 61.0 °F 60.1 °F 97% 29.87 in 10.0 mi Calm Calm - 0.00 in   Mostly Cloudy
10:53 PM 61.0 °F 60.1 °F 97% 29.86 in 10.0 mi Calm Calm - N/A   Overcast
11:53 PM 61.0 °F 59.0 °F 93% 29.83 in 10.0 mi SSW 3.5 mph - 0.00 in   Overcast